Location: Katowice
(50.2611°N, 19.0242°E)
Time: 10:02:30
(UTC+02:00)

Explorer 7 - Pass Details

Date: 29 August 2019
Orbit: 485 x 680 km, 50.3° (Epoch: 22 September)

Event Time Altitude Azimuth Distance (km) Brightness Sun altitude
Rises 10:22:29 0° 266° (W) 3,017 10.3 39.7°
Reaches altitude 10° 10:24:52 10° 267° (W) 2,088 9.5 40.0°
Maximum altitude 10:29:43 89° 357° (N) 652 7.9 40.5°
Drops below altitude 10° 10:34:20 10° 88° (E) 1,990 10.3 41.0°
Sets 10:36:35 0° 88° (E) 2,864 10.9 41.3°
